This is the latest recevied weather packets stored in our database for station/object M0HPP-13. If no packets are shown the sender has not sent any weather packets the latest 10 day(s).
| Time | Temp. | Humidity | Pressure | Rain* | Wind** | Luminosity | Snow |
|---|---|---|---|---|---|---|---|
| 1787686086 | 14.44° C | 83% | 1018.8 hPa | 0 mm | - | 9 W/m² | - |
| 1787685486 | 14.44° C | 83% | 1018.7 hPa | 0 mm | - | 14 W/m² | - |
| 1787684886 | 14.44° C | 83% | 1018.7 hPa | 0 mm | - | 21 W/m² | - |
| 1787684286 | 14.44° C | 83% | 1018.7 hPa | 0 mm | - | 38 W/m² | - |
| 1787683686 | 14.44° C | 83% | 1018.6 hPa | 0 mm | - | 42 W/m² | - |
| 1787683086 | 14.44° C | 83% | 1018.6 hPa | 0 mm | - | 54 W/m² | - |
| 1787682486 | 14.44° C | 82% | 1018.5 hPa | 0 mm | - | 62 W/m² | - |
| 1787681886 | 15° C | 82% | 1018.4 hPa | 0 mm | - | 70 W/m² | - |
| 1787681286 | 15° C | 81% | 1018.3 hPa | 0 mm | - | 74 W/m² | - |
| 1787680686 | 15° C | 81% | 1018.3 hPa | 0 mm | - | 88 W/m² | - |
| 1787680086 | 15.56° C | 81% | 1018.3 hPa | 0 mm | - | 117 W/m² | - |
| 1787679486 | 15.56° C | 80% | 1018.3 hPa | 0 mm | - | 111 W/m² | - |
| 1787678886 | 16.67° C | 78% | 1018.3 hPa | 0 mm | - | 219 W/m² | - |
| 1787678286 | 16.11° C | 79% | 1018.3 hPa | 0 mm | - | 280 W/m² | - |
| 1787677686 | 16.11° C | 80% | 1018.3 hPa | 0 mm | - | 208 W/m² | - |
| 1787677086 | 15.56° C | 80% | 1018.3 hPa | 0 mm | - | 195 W/m² | - |
| 1787676486 | 15.56° C | 80% | 1018.3 hPa | 0 mm | - | 113 W/m² | - |
| 1787675886 | 15.56° C | 81% | 1018.3 hPa | 0 mm | - | 175 W/m² | - |
| 1787675286 | 15.56° C | 81% | 1018.3 hPa | 0 mm | - | 134 W/m² | - |
| 1787674686 | 15.56° C | 80% | 1018.3 hPa | 0 mm | - | 140 W/m² | - |
| 1787674086 | 16.11° C | 81% | 1018.3 hPa | 0 mm | - | 175 W/m² | - |
| 1787673486 | 16.11° C | 83% | 1018.3 hPa | 0 mm | - | 292 W/m² | - |
| 1787672886 | 15.56° C | 85% | 1018.4 hPa | 0 mm | - | 247 W/m² | - |
| 1787672286 | 15.56° C | 84% | 1018.5 hPa | 0 mm | - | 280 W/m² | - |
| 1787671686 | 15.56° C | 86% | 1018.5 hPa | 0 mm | - | 349 W/m² | - |
* Rain latest hour (hover to see other rain measurements)
** Current wind speed in m/s (hover to see current wind gust speed)